Tracking 30101 objects as of 13-Dec-2024
HD Live streaming from Space Station
objects crossing your sky now

STARLINK-6148

Track STARLINK-6148 now!
10-day predictions
STARLINK-6148 is classified as:


NORAD ID: 57117
Int'l Code: 2023-090S
Perigee: 565.3 km
Apogee: 567.1 km
Inclination: 43.0 °
Period: 95.8 minutes
Semi major axis: 6937 km
RCS: Unknown
Launch date: June 23, 2023
Source: United States (US)
Launch site: AIR FORCE EASTERN TEST RANGE (AFETR)
Your satellite tracking list
Your tracking list is empty




NASA's NSSDC Master Catalog

Two Line Element Set (TLE):
1 57117U 23090S   24347.36679364 -.00000262  00000-0 -42912-5 0  9994
2 57117  43.0024 212.3283 0001273 267.1344  92.9353 15.02532548 82373
Source of the keplerian elements: AFSPC